Location: Branche des Alpilles
(43.6087°N, 4.6976°E)
Time: 09:52:21
(UTC+00:00)

Cosmos 2285 Rocket - Pass Details

Date: 30 November 2020
Orbit: 971 x 998 km, 74.0° (Epoch: 25 January)

Event Time Altitude Azimuth Distance (km) Brightness Sun altitude
Rises 16:57:57 0° 340° (NNW) 3,715 7.0 -9.3°
Reaches altitude 10° 17:00:32 10° 342° (NNW) 2,759 6.3 -9.8°
Maximum altitude 17:06:56 75° 68° (ENE) 1,022 4.0 -10.8°
Drops below altitude 10° 17:13:15 10° 154° (SSE) 2,723 6.3 -11.9°
Sets 17:15:47 0° 156° (SSE) 3,663 7.0 -12.4°
